Fort Wayne, IN

6:28 AM EDT on October 18, 2017 (GMT -0400)
Fort Wayne International

Weather History for KFWA - October, 2013

Change the Weather History Date:

Friday, October 4, 2013

  Actual Average Record
Temperature  
Mean Temperature 75 °F 57 °F  
Max Temperature 85 °F 68 °F 90 °F (1951)
Min Temperature 64 °F 45 °F 29 °F (1989)
Degree Days  
Heating Degree Days 0 9  
Month to date heating degree days 1 34  
Since 1 July heating degree days 119 150  
Cooling Degree Days 10 1  
Month to date cooling degree days 23 4  
Year to date cooling degree days 850 804  
Growing Degree Days 24 (Base 50)    
Moisture  
Dew Point 66 °F    
Average Humidity 78    
Maximum Humidity 94    
Minimum Humidity 54    
Precipitation  
Precipitation 0.06 in 0.10 in 1.99 in (1991)
Month to date precipitation 0.23 0.39  
Year to date precipitation 34.46 30.03  
Snow  
Snow 0.00 in - - ()
Month to date snowfall 0.0  
Snow Depth 0.00 in    
Sea Level Pressure  
Sea Level Pressure 30.01 in    
Wind  
Wind Speed 7 mph (SSW)    
Max Wind Speed 16 mph    
Max Gust Speed 21 mph    
Visibility 9 miles    
Events Rain , Thunderstorm    
T = Trace of Precipitation, MM = Missing Value Source: NWS Daily Summary

Daily Weather History Graph

Daily Weather History Graph

Search for Another Location

Airport or City:

Trip Planner

Search our weather history database for the weather conditions in past years. The results will help you decide how hot, cold, wet, or windy it might be!

Date:

Astronomy

Oct. 04, 2013 Rise Set
Actual Time 7:40 AM EDT 7:17 PM EDT
Civil Twilight 7:13 AM EDT 7:44 PM EDT
Nautical Twilight 6:41 AM EDT 8:16 PM EDT
Astronomical Twilight 6:09 AM EDT 8:48 PM EDT
Moon 7:15 AM EDT (10/4) 6:59 PM EDT (10/4)
Length of Visible Light 12h 31m
Length of Day
11h 36m
Waning Crescent, 0% of the Moon is Illuminated
Oct 4
Waning Crescent
Oct 4
New
Oct 11
First Quarter
Oct 18
Full
Oct 26
Last Quarter

Hourly Weather History & Observations

Time (EDT) Temp. Heat Index Dew Point Humidity Pressure Visibility Wind Dir Wind Speed Gust Speed Precip Events Conditions
12:54 AM 68.0 °F - 63.0 °F 84% 29.98 in 10.0 mi South 8.1 mph - N/A   Mostly Cloudy
1:54 AM 68.0 °F - 63.0 °F 84% 29.98 in 9.0 mi SSW 9.2 mph - N/A   Mostly Cloudy
2:54 AM 68.0 °F - 64.0 °F 87% 29.97 in 8.0 mi SSW 12.7 mph - N/A   Mostly Cloudy
3:54 AM 69.1 °F - 64.0 °F 84% 29.99 in 9.0 mi SW 6.9 mph - N/A   Mostly Cloudy
4:54 AM 66.9 °F - 64.0 °F 90% 29.99 in 7.0 mi SSW 5.8 mph - N/A   Overcast
5:54 AM 68.0 °F - 64.0 °F 87% 30.00 in 8.0 mi SW 4.6 mph - N/A   Mostly Cloudy
6:54 AM 66.9 °F - 64.0 °F 90% 30.02 in 7.0 mi SSW 3.5 mph - N/A   Mostly Cloudy
7:54 AM 66.0 °F - 64.0 °F 93% 30.04 in 7.0 mi SSW 3.5 mph - N/A   Mostly Cloudy
8:54 AM 69.1 °F - 64.9 °F 87% 30.03 in 8.0 mi South 9.2 mph - N/A   Mostly Cloudy
9:54 AM 73.9 °F - 66.0 °F 76% 30.04 in 10.0 mi SW 12.7 mph - N/A   Mostly Cloudy
10:54 AM 77.0 °F - 66.9 °F 71% 30.03 in 10.0 mi SW 11.5 mph 16.1 mph N/A   Scattered Clouds
11:54 AM 80.1 °F 82.3 °F 66.9 °F 64% 30.03 in 10.0 mi WSW 9.2 mph - N/A   Scattered Clouds
12:54 PM 81.0 °F 83.3 °F 66.9 °F 62% 30.03 in 10.0 mi SW 12.7 mph 17.3 mph N/A   Mostly Cloudy
1:54 PM 80.1 °F 82.1 °F 66.0 °F 62% 30.01 in 10.0 mi WSW 11.5 mph 18.4 mph N/A   Mostly Cloudy
2:54 PM 82.0 °F 85.5 °F 69.1 °F 65% 29.99 in 10.0 mi SSW 13.8 mph - 0.01 in   Mostly Cloudy
3:14 PM 82.4 °F 84.6 °F 66.2 °F 58% 30.00 in 10.0 mi SSW 11.5 mph - N/A Thunderstorm Thunderstorm
3:40 PM 82.4 °F 84.6 °F 66.2 °F 58% 30.00 in 10.0 mi SSW 3.5 mph - 0.00 in   Mostly Cloudy
3:48 PM 82.4 °F 84.6 °F 66.2 °F 58% 30.00 in 10.0 mi Variable 4.6 mph - 0.00 in Thunderstorm Thunderstorm
3:54 PM 82.0 °F 84.5 °F 66.9 °F 60% 29.99 in 10.0 mi Calm Calm - 0.00 in Thunderstorm Thunderstorm
4:54 PM 75.9 °F - 66.0 °F 71% 30.00 in 10.0 mi North 15.0 mph - N/A Thunderstorm Thunderstorm
5:54 PM 73.0 °F - 66.9 °F 81% 30.00 in 6.0 mi SE 5.8 mph - 0.00 in Rain , Thunderstorm Light Thunderstorms and Rain
6:22 PM 71.6 °F - 69.8 °F 94% 30.00 in 10.0 mi East 5.8 mph - 0.05 in   Scattered Clouds
6:54 PM 71.1 °F - 68.0 °F 90% 30.00 in 8.0 mi East 3.5 mph - 0.05 in   Scattered Clouds
7:54 PM 70.0 °F - 66.9 °F 90% 30.01 in 10.0 mi ESE 6.9 mph - N/A   Mostly Cloudy
8:54 PM 69.1 °F - 66.0 °F 90% 30.02 in 10.0 mi SE 8.1 mph - N/A   Mostly Cloudy
10:54 PM 66.9 °F - 64.0 °F 90% 30.03 in 9.0 mi Calm Calm - N/A   Mostly Cloudy
11:54 PM 66.0 °F - 64.0 °F 93% 30.03 in 8.0 mi Calm Calm - N/A   Mostly Cloudy